Total_Precipitation_Accumulation
1.66 1.79 1.74 1.70 1.70 1.74 1.82 1.87 1.89 1.76 1.50 1.11 0.97 0.91 0.93 1.01 1.29 1.14 0.99 0.96 0.87 0.81 0.73 0.64 0.60 0.61 0.75 0.95 1.19 1.39 1.52 1.63 1.66 1.63 1.55 1.53 1.58 1.65
1.46 1.60 1.72 1.75 1.77 1.77 1.82 1.83 1.79 1.76 1.67 1.28 1.03 0.86 0.92 0.90 1.10 0.91 1.01 1.17 0.96 0.80 0.71 0.65 0.61 0.59 0.58 0.66 0.73 0.78 0.83 0.89 1.00 1.16 1.20 1.16 1.16 1.22
1.28 1.32 1.49 1.61 1.72 1.77 1.78 1.77 1.82 1.77 1.64 1.43 1.13 0.95 1.02 1.02 1.07 0.93 0.94 0.99 0.91 0.87 0.78 0.69 0.61 0.59 0.56 0.59 0.59 0.56 0.58 0.59 0.64 0.77 0.87 0.86 0.84 0.86
1.15 1.22 1.30 1.32 1.42 1.56 1.66 1.65 1.73 1.78 1.73 1.63 1.34 1.11 1.08 1.12 1.25 1.26 1.18 1.11 1.08 1.16 1.10 0.91 0.75 0.67 0.64 0.61 0.59 0.53 0.50 0.51 0.50 0.55 0.64 0.75 0.85 0.84
1.00 1.05 1.09 1.17 1.28 1.31 1.39 1.48 1.57 1.62 1.71 1.65 1.55 1.42 1.25 1.18 1.22 1.22 1.30 1.45 1.39 1.37 1.40 1.22 0.99 0.84 0.75 0.70 0.66 0.60 0.54 0.54 0.52 0.50 0.51 0.56 0.66 0.75
0.88 0.95 1.00 1.04 1.12 1.20 1.22 1.34 1.46 1.56 1.58 1.55 1.49 1.42 1.37 1.33 1.33 1.29 1.35 1.49 1.56 1.46 1.42 1.34 1.24 1.11 0.96 0.84 0.73 0.67 0.64 0.60 0.59 0.55 0.52 0.54 0.59 0.64
0.80 0.84 0.87 0.83 0.86 0.93 0.94 1.11 1.27 1.45 1.52 1.55 1.46 1.35 1.30 1.32 1.31 1.32 1.37 1.53 1.58 1.61 1.60 1.46 1.34 1.17 1.04 0.94 0.82 0.75 0.71 0.66 0.62 0.61 0.61 0.59 0.61 0.68
0.71 0.74 0.80 0.83 0.78 0.74 0.74 0.81 0.95 1.07 1.25 1.38 1.41 1.34 1.27 1.25 1.33 1.44 1.45 1.53 1.63 1.56 1.48 1.55 1.48 1.36 1.18 0.99 0.97 0.93 0.83 0.74 0.67 0.64 0.62 0.60 0.59 0.64
0.54 0.67 0.78 0.84 0.87 0.89 0.78 0.76 0.78 0.82 0.92 1.09 1.22 1.23 1.21 1.23 1.29 1.38 1.45 1.49 1.41 1.47 1.42 1.50 1.48 1.36 1.20 1.13 1.17 1.04 0.94 0.86 0.81 0.74 0.68 0.66 0.66 0.69
0.47 0.58 0.73 0.84 0.87 0.89 0.85 0.91 0.89 0.79 0.76 0.84 1.03 1.11 1.11 1.23 1.36 1.47 1.58 1.57 1.52 1.50 1.42 1.43 1.39 1.26 1.16 1.14 1.21 1.08 0.97 0.90 0.85 0.83 0.81 0.78 0.78 0.81
0.44 0.52 0.68 0.76 0.86 0.87 0.84 0.95 0.95 0.78 0.71 0.81 0.86 0.92 1.01 1.13 1.31 1.45 1.54 1.55 1.54 1.51 1.36 1.23 1.18 1.23 1.23 1.16 1.13 1.12 1.00 0.90 0.82 0.78 0.77 0.76 0.78 0.88
0.45 0.50 0.69 0.75 0.77 0.74 0.76 0.97 1.06 0.93 0.71 0.69 0.76 0.89 0.97 1.10 1.32 1.46 1.68 1.68 1.49 1.46 1.35 1.21 1.20 1.28 1.41 1.31 1.13 1.03 0.96 0.96 0.92 0.87 0.84 0.83 0.92 0.91
0.33 0.38 0.41 0.53 0.56 0.61 0.72 0.83 0.93 0.84 0.76 0.84 0.92 0.96 1.03 1.09 1.18 1.31 1.52 1.70 1.63 1.42 1.31 1.31 1.29 1.28 1.26 1.21 1.15 1.04 0.93 0.92 0.89 0.88 0.91 0.95 1.00 0.98
0.24 0.29 0.33 0.42 0.47 0.53 0.59 0.64 0.68 0.73 0.79 0.92 0.95 0.87 0.92 0.98 0.99 1.08 1.25 1.39 1.30 1.25 1.16 1.10 1.12 1.07 1.02 0.96 0.95 1.00 1.01 0.95 0.91 0.90 0.88 1.03 1.09 1.10
0.19 0.25 0.28 0.36 0.36 0.42 0.50 0.51 0.59 0.81 0.93 0.88 0.86 0.83 0.81 0.85 0.84 0.95 1.14 1.29 1.25 1.08 1.00 0.93 0.94 0.94 0.92 0.87 0.82 0.81 0.87 0.90 0.85 0.86 0.89 0.89 0.89 0.97
0.21 0.24 0.27 0.34 0.36 0.39 0.45 0.53 0.65 0.81 0.95 0.81 0.69 0.70 0.71 0.80 0.87 0.85 0.95 1.04 1.19 1.18 1.06 0.99 0.95 0.95 0.93 0.84 0.81 0.77 0.71 0.74 0.78 0.85 0.89 0.89 0.87 0.84
0.25 0.33 0.43 0.53 0.53 0.53 0.59 0.63 0.66 0.67 0.72 0.67 0.66 0.71 0.75 0.77 0.82 0.85 0.86 0.88 0.91 0.96 0.99 0.97 0.94 0.96 0.98 0.93 0.87 0.78 0.74 0.70 0.73 0.85 0.96 0.99 0.93 0.90
0.35 0.39 0.50 0.64 0.68 0.71 0.71 0.71 0.73 0.69 0.70 0.66 0.68 0.69 0.69 0.69 0.72 0.79 0.87 0.93 0.87 0.79 0.76 0.75 0.79 0.87 0.94 0.98 0.88 0.78 0.78 0.78 0.79 0.81 0.84 0.88 0.87 0.86
0.38 0.41 0.58 0.64 0.63 0.65 0.72 0.76 0.70 0.61 0.61 0.60 0.56 0.56 0.55 0.54 0.57 0.63 0.71 0.78 0.79 0.75 0.72 0.71 0.72 0.77 0.81 0.78 0.74 0.67 0.69 0.76 0.84 0.84 0.79 0.76 0.73 0.72
0.44 0.59 0.73 0.76 0.71 0.64 0.62 0.58 0.51 0.47 0.46 0.46 0.46 0.46 0.49 0.50 0.52 0.53 0.56 0.59 0.64 0.67 0.72 0.74 0.76 0.77 0.79 0.77 0.71 0.64 0.61 0.66 0.74 0.80 0.78 0.79 0.81 0.85
0.42 0.53 0.63 0.71 0.65 0.51 0.43 0.40 0.38 0.38 0.39 0.40 0.43 0.47 0.48 0.50 0.51 0.54 0.55 0.57 0.59 0.61 0.64 0.66 0.71 0.84 0.88 0.89 0.83 0.68 0.63 0.69 0.76 0.77 0.78 0.81 0.82 0.81
0.29 0.33 0.37 0.39 0.37 0.34 0.33 0.33 0.33 0.36 0.38 0.40 0.43 0.46 0.51 0.56 0.56 0.54 0.55 0.55 0.56 0.57 0.57 0.59 0.68 0.79 0.86 0.90 0.82 0.70 0.62 0.63 0.74 0.83 0.84 0.82 0.79 0.74
0.27 0.29 0.31 0.32 0.33 0.32 0.32 0.32 0.33 0.35 0.37 0.39 0.43 0.48 0.50 0.52 0.56 0.56 0.56 0.56 0.57 0.56 0.58 0.60 0.64 0.73 0.82 0.84 0.81 0.74 0.68 0.65 0.65 0.67 0.69 0.74 0.73 0.67